Regional Weather Roundup
Issued by NWS

Home | Current Version | Previous Version | Text Only | Print | Product List | Glossary Off
Versions: 1 2 3 4 5 6 7 8 9 10 11 12 13 14 15 16 17 18 19 20 21 22 23 24 25 26 27 28 29 30 31 32 33 34 35 36 37 38 39 40 41 42 43 44 45 46 47 48 49 50

000
ASUS43 KOAX 241910
RWRNE

WEATHER ROUNDUP FOR NEBRASKA
NATIONAL WEATHER SERVICE OMAHA NE
200 PM CDT SUN MAY 24 2015

NOTES: SATELLITE DATA IS BEING USED TO AUGMENT CLOUD COVER ABOVE
       12000 FEET.
       "FAIR" INDICATES FEW OR NO CLOUDS BELOW 12,000 FEET WITH NO
       SIGNIFICANT WEATHER AND/OR OBSTRUCTIONS TO VISIBILITY.

  * THESE STATIONS DO NOT REPORT WEATHER SUCH AS RAIN...SNOW OR FOG.

NEZ001>004-019>022-054>056-242000-
NEBRASKA PANHANDLE

CITY           SKY/WX    TMP DP  RH WIND       PRES   REMARKS
SCOTTSBLUFF    MOSUNNY   64  50  60 NE7       29.85F
ALLIANCE       CLOUDY    62  50  64 W3        29.85S
CHADRON        PTSUNNY   63  53  70 NE8       29.85F
KIMBALL          N/A    N/A N/A N/A MISG        N/A
SIDNEY         MOSUNNY   61  51  70 E7        29.88F
$$

NEZ057>060-069>072-079>082-242000-
SOUTHWEST NEBRASKA

CITY           SKY/WX    TMP DP  RH WIND       PRES   REMARKS
NORTH PLATTE   CLOUDY    68  55  63 CALM      29.85F
IMPERIAL       MOSUNNY   68  50  52 VRB3      29.84F
LEXINGTON      CLOUDY    63  57  82 CALM      29.86F
MCCOOK         CLOUDY    69  56  62 VRB5      29.83F
OGALLALA       PTSUNNY   66  53  62 S3        29.85F
$$

NEZ005>010-023>029-035>040-094-242000-
NORTH CENTRAL NEBRASKA

CITY           SKY/WX    TMP DP  RH WIND       PRES   REMARKS
VALENTINE      CLOUDY    61  58  90 E9        29.87F
AINSWORTH      CLOUDY    62  60  94 E5        29.87F
BROKEN BOW     CLOUDY    65  58  78 E6        29.85F
O`NEILL        CLOUDY    62  60  94 E5        29.86S
ORD            CLOUDY    63  57  81 CALM      29.84S
THEDFORD       CLOUDY    64  58  81 SE3       29.87S
$$

NEZ041-046>049-061>064-073>077-083>087-242000-
SOUTH CENTRAL NEBRASKA

CITY           SKY/WX    TMP DP  RH WIND       PRES   REMARKS
GRAND ISLAND   CLOUDY    65  58  78 SW7       29.85F
AURORA         CLOUDY    66  60  79 W6        29.85S
HASTINGS       CLOUDY    64  57  78 SW6       29.86S
HEBRON         CLOUDY    67  58  74 SW7       29.85F
HOLDREGE       CLOUDY    62  57  84 S5        29.86F
KEARNEY *      CLOUDY    63  55  77 CALM      29.86F
YORK           CLOUDY    66  59  77 SW6       29.85S
$$

NEZ011>018-030>034-042>045-242000-
NORTHEAST NEBRASKA

CITY           SKY/WX    TMP DP  RH WIND       PRES   REMARKS
NORFOLK        CLOUDY    65  59  81 CALM      29.83R
ALBION         CLOUDY    64  57  78 CALM      29.84S
BLAIR          CLOUDY    66  60  82 S3        29.82F
COLUMBUS *     CLOUDY    64  55  72 SW6       29.87R
FREMONT        CLOUDY    68  62  80 SW5       29.83S
TEKAMAH        CLOUDY    67  61  81 S6        29.81F
WAYNE          CLOUDY    64  60  88 SE3       29.83S
$$

NEZ050>053-065>068-078-088>093-242000-
SOUTHEAST NEBRASKA

CITY           SKY/WX    TMP DP  RH WIND       PRES   REMARKS
LINCOLN        CLOUDY    68  60  75 SW8       29.85R
OMAHA EPPLEY   CLOUDY    67  62  84 SE3       29.81F
BEATRICE       CLOUDY    68  61  77 SW8       29.84F
FALLS CITY     LGT RAIN  70  63  78 S9        29.84F
NEBRASKA CITY  CLOUDY    67  64  87 SW8       29.84S
PLATTSMOUTH    CLOUDY    67  61  79 CALM      29.83F
$$

NEZ044-045-051>053-067-242000-
OMAHA AREA

CITY           SKY/WX    TMP DP  RH WIND       PRES   REMARKS
OMAHA EPPLEY   CLOUDY    67  62  84 SE3       29.81F
BLAIR          CLOUDY    66  60  82 S3        29.82F
FREMONT        CLOUDY    68  62  80 SW5       29.83S
MILLARD        CLOUDY    69  62  78 CALM      29.82F
OFFUTT AFB     CLOUDY    68  62  82 S6        29.81F
PLATTSMOUTH    CLOUDY    67  61  79 CALM      29.83F
WAHOO          CLOUDY    67  61  79 SW3       29.83S
$$



USA.gov is the U.S. government's official web portal to all federal, state and local government web resources and services.